Back to catalog

THORAD AGENA D DEB

AliveSSO
NORAD 4914·DEBRIS·🇺🇸 United States

Launched Apr 8, 1970 from Vandenberg Space Force Base

Loading…

Next Passes

TLE

Source: Space-Track
1  4914U 70025FL  26225.08245551  .00002519  00000-0  28137-2 0  9999
2  4914  99.4414 170.1407 0081551  62.0482   0.9129 13.70753474782574

Track THORAD AGENA D DEB in real time with AllMySat

Download on the App Store